Vorticity
8 9 9 8 7 6 6 6 7 7 8 7 4 3 4 5 7 6 10 10 8 5 4 4 5 6 6 8 4 4 5 5 6 20 2 15 8 6 8 7 6 9 6 7 7
12 11 11 10 10 11 10 8 8 9 9 9 8 4 4 5 5 6 8 8 11 7 6 3 4 4 7 7 3 1 5 3 3 6 50 -0 7 8 7 7 6 8 7 7 6
6 8 10 11 11 11 12 11 11 10 10 12 11 7 4 4 4 7 7 9 9 9 6 5 3 3 4 6 5 2 7 2 5 11 20 -1 6 11 5 7 6 11 8 7 6
7 9 10 11 11 9 10 9 9 10 12 12 13 10 4 4 6 4 5 7 7 7 7 6 5 3 3 5 8 3 3 3 1 3 34 -5 13 10 5 4 6 6 11 4 4
7 9 10 6 7 9 10 8 13 11 10 8 8 10 13 10 4 8 7 8 8 6 7 7 6 5 3 5 6 8 1 6 1 4 3 0 5 6 4 6 8 4 13 4 6
6 9 6 6 4 6 7 10 10 15 8 10 3 8 10 8 10 10 12 10 10 10 5 7 7 7 5 4 5 6 9 2 4 -0 2 24 -5 17 1 8 6 6 8 11 6
7 6 4 5 5 7 8 9 12 13 7 13 4 0 3 14 14 12 11 11 10 10 11 7 5 7 8 7 5 6 7 9 4 -1 0 -3 -20 27 29 3 5 5 6 10 7
5 4 3 4 4 6 6 7 8 11 10 17 8 11 6 13 12 11 10 11 11 12 12 9 8 7 7 9 7 5 9 6 11 5 7 -1 -2 8 40 4 2 6 5 10 9
5 4 4 4 4 6 7 10 11 12 13 10 10 9 10 8 13 11 10 9 8 10 10 10 9 10 11 9 6 6 6 7 9 7 1 5 3 3 17 9 8 2 6 6 10
6 5 4 5 5 7 8 10 15 12 12 10 14 15 13 15 10 13 11 12 12 10 9 9 9 12 11 10 11 14 7 1 -3 13 8 3 2 4 -3 28 -12 9 6 2 10
6 6 5 5 6 8 9 12 12 12 12 13 11 15 7 11 11 14 12 11 10 8 7 8 10 13 11 7 1 12 6 6 -2 25 10 10 -4 20 5 13 7 -3 6 3 7
6 6 6 6 6 9 7 13 11 9 11 12 13 9 11 13 8 9 10 13 13 12 11 9 9 7 11 11 7 7 7 9 8 -4 5 6 7 1 15 15 19 24 11 3 4
5 6 7 9 11 10 12 13 11 8 9 12 10 12 9 7 10 10 9 15 17 18 15 10 10 8 12 12 10 7 5 11 0 6 9 16 10 3 5 16 2 42 4 6 3
8 7 11 11 11 11 11 12 10 6 12 12 14 9 8 9 8 7 11 17 21 21 19 9 11 10 11 12 9 6 10 10 9 6 1 7 8 7 12 22 12 16 4 5 5
5 11 11 13 11 12 11 10 11 9 0 18 8 9 9 8 7 7 10 15 17 23 17 16 12 10 10 9 9 -1 8 9 10 10 5 11 3 14 15 6 10 10 2 5 4
6 12 12 11 10 13 11 11 10 8 12 11 9 9 9 8 8 8 8 19 17 19 16 18 11 10 8 10 7 10 8 10 9 13 14 12 -8 15 20 18 -1 22 21 7 8
7 11 16 13 10 11 9 11 12 10 10 9 6 8 8 6 8 11 2 6 19 15 14 14 14 12 13 11 9 9 9 10 13 12 11 15 2 6 14 21 14 -7 23 3 -6
6 8 8 15 8 7 12 13 12 12 9 11 9 10 8 7 10 11 5 5 6 14 15 11 17 13 15 14 10 14 13 1 15 12 14 12 18 7 10 1 9 14 -2 39 0
3 8 5 8 12 6 10 11 12 9 7 10 10 8 8 9 12 15 7 6 8 13 7 13 4 14 12 14 11 10 9 10 2 32 -2 14 21 12 9 17 14 15 12 36 14
5 5 9 8 14 9 4 14 11 11 10 11 8 11 9 10 12 14 12 7 7 13 9 8 10 13 9 15 14 9 11 14 11 3 7 20 7 14 10 10 12 15 22 27 40
10 2 9 6 6 15 5 10 7 11 13 9 7 8 9 8 11 5 3 7 8 8 9 7 -1 13 6 3 9 14 9 8 13 4 18 9 -0 6 8 -2 5 7 15 35 26
10 2 3 4 6 13 8 5 9 10 9 10 9 8 9 8 9 8 5 7 9 6 9 -1 -3 14 10 0 8 4 -12 16 -12 21 -5 28 31 2 19 -1 1 8 8 20 33
14 18 3 6 7 7 10 5 4 8 7 10 13 10 8 8 10 12 5 6 6 6 2 4 5 6 22 12 13 5 9 3 -9 20 -19 11 10 7 6 -5 8 7 8 20 3
0 19 11 13 8 4 10 7 6 7 6 9 10 10 9 8 9 9 11 5 8 -4 1 16 -1 3 -14 25 -1 24 5 0 4 3 13 28 2 3 2 1 -7 6 7 18 2
11 6 9 15 9 7 9 7 6 6 4 7 9 10 7 8 10 10 18 12 3 5 -0 7 6 15 13 13 10 17 16 3 9 2 1 1 15 9 2 4 12 7 1 15 7
7 9 5 9 9 7 4 8 6 5 6 5 8 12 12 8 7 6 12 15 8 13 15 8 7 -4 11 7 2 15 -3 33 8 9 9 10 5 37 9 -1 3 10 -2 -2 12
13 10 8 9 11 10 6 7 7 7 7 8 2 11 12 12 9 6 5 9 14 15 14 15 22 16 4 20 7 12 14 7 9 23 8 -1 8 3 16 10 14 7 4 0 -3
Height
5891 5891 5890 5889 5888 5887 5886 5884 5884 5883 5882 5882 5882 5881 5881 5881 5881 5881 5882 5883 5885 5886 5886 5886 5886 5888 5888 5889 5890 5890 5890 5890 5891 5891 5891 5894 5895 5895 5895 5895 5895 5894 5893 5893 5893
5889 5888 5887 5886 5885 5884 5883 5882 5881 5880 5880 5879 5879 5879 5879 5879 5879 5879 5880 5880 5882 5884 5884 5885 5886 5887 5888 5888 5890 5891 5890 5891 5892 5890 5889 5892 5894 5895 5896 5895 5895 5894 5893 5894 5894
5888 5887 5885 5884 5883 5882 5881 5880 5878 5877 5876 5876 5876 5876 5876 5876 5877 5877 5877 5878 5880 5882 5883 5884 5885 5885 5887 5888 5889 5890 5891 5891 5891 5890 5890 5892 5894 5894 5896 5896 5895 5895 5895 5894 5894
5887 5886 5884 5883 5882 5881 5879 5878 5876 5875 5873 5872 5872 5872 5872 5873 5875 5874 5875 5876 5877 5879 5880 5882 5883 5884 5886 5887 5889 5890 5890 5892 5891 5890 5891 5891 5892 5893 5895 5896 5896 5895 5896 5894 5893
5887 5885 5884 5882 5880 5878 5877 5875 5873 5872 5871 5870 5870 5869 5869 5870 5870 5870 5871 5872 5873 5875 5877 5879 5881 5882 5884 5887 5888 5888 5889 5890 5891 5890 5891 5891 5892 5893 5895 5896 5897 5895 5896 5896 5894
5886 5884 5882 5880 5878 5877 5875 5873 5871 5869 5869 5868 5867 5867 5866 5866 5865 5866 5867 5869 5870 5871 5874 5876 5878 5881 5883 5885 5887 5887 5888 5889 5890 5889 5889 5891 5889 5892 5894 5895 5896 5896 5896 5897 5896
5884 5882 5881 5879 5876 5875 5873 5870 5868 5866 5865 5865 5864 5863 5862 5862 5861 5862 5863 5864 5866 5868 5870 5872 5874 5877 5881 5882 5885 5885 5887 5888 5888 5889 5888 5889 5889 5890 5891 5894 5896 5897 5896 5897 5897
5883 5881 5879 5877 5875 5872 5870 5867 5865 5863 5862 5861 5860 5859 5858 5858 5857 5857 5858 5860 5861 5863 5866 5868 5870 5874 5877 5880 5882 5884 5885 5887 5887 5887 5888 5889 5889 5890 5890 5891 5894 5896 5897 5898 5898
5881 5879 5877 5874 5872 5870 5867 5865 5862 5860 5857 5857 5856 5855 5855 5855 5854 5854 5855 5856 5857 5859 5861 5863 5866 5871 5875 5877 5879 5881 5883 5883 5885 5885 5886 5888 5888 5889 5890 5890 5892 5895 5897 5898 5899
5879 5877 5874 5872 5869 5867 5864 5861 5858 5856 5855 5853 5852 5852 5851 5851 5851 5851 5851 5852 5853 5854 5856 5859 5862 5868 5870 5873 5878 5876 5878 5879 5881 5883 5885 5886 5886 5887 5887 5889 5891 5893 5895 5897 5900
5877 5874 5872 5869 5866 5863 5860 5857 5857 5854 5852 5850 5849 5847 5847 5847 5847 5847 5848 5848 5850 5851 5852 5854 5858 5863 5864 5866 5868 5871 5873 5876 5878 5880 5882 5884 5885 5886 5887 5887 5888 5890 5895 5896 5900
5874 5871 5869 5866 5862 5860 5857 5854 5852 5851 5849 5847 5846 5845 5844 5844 5844 5844 5845 5845 5845 5845 5847 5850 5854 5856 5858 5862 5866 5868 5870 5873 5875 5877 5880 5881 5883 5884 5884 5884 5884 5885 5890 5895 5899
5871 5868 5865 5862 5859 5856 5854 5851 5849 5847 5846 5845 5844 5842 5841 5841 5841 5841 5841 5840 5839 5839 5842 5845 5849 5849 5854 5859 5863 5865 5867 5869 5871 5873 5877 5879 5882 5882 5883 5883 5882 5885 5889 5895 5899
5868 5864 5861 5858 5856 5853 5851 5848 5846 5845 5844 5844 5842 5841 5840 5838 5838 5837 5836 5836 5834 5835 5837 5840 5843 5846 5851 5856 5860 5865 5862 5865 5868 5872 5875 5877 5879 5879 5880 5881 5881 5885 5889 5893 5897
5864 5861 5858 5854 5852 5850 5848 5846 5844 5842 5843 5842 5840 5838 5836 5836 5835 5834 5834 5832 5831 5832 5835 5836 5839 5842 5846 5852 5855 5859 5859 5863 5866 5869 5872 5875 5878 5876 5876 5879 5880 5883 5888 5892 5895
5860 5857 5854 5852 5849 5847 5845 5843 5842 5842 5838 5839 5837 5836 5835 5834 5833 5832 5832 5831 5831 5831 5832 5834 5837 5841 5844 5848 5851 5853 5857 5861 5865 5866 5871 5871 5876 5876 5874 5876 5878 5881 5884 5889 5892
5856 5854 5851 5849 5847 5844 5843 5841 5842 5839 5838 5837 5836 5834 5834 5833 5832 5831 5831 5830 5831 5832 5833 5835 5837 5840 5842 5846 5849 5852 5856 5862 5865 5866 5869 5869 5873 5872 5873 5873 5876 5877 5880 5884 5889
5852 5850 5848 5846 5844 5842 5841 5840 5838 5837 5835 5834 5834 5833 5833 5831 5831 5830 5830 5830 5830 5832 5834 5836 5838 5838 5841 5844 5848 5851 5855 5863 5862 5864 5866 5866 5869 5869 5871 5872 5872 5875 5877 5878 5883
5848 5846 5844 5842 5841 5840 5839 5837 5836 5834 5833 5832 5832 5831 5831 5831 5830 5830 5830 5831 5830 5831 5834 5836 5838 5837 5839 5842 5846 5849 5851 5858 5859 5860 5863 5866 5866 5867 5867 5868 5869 5869 5872 5873 5878
5842 5841 5840 5838 5837 5836 5836 5834 5832 5832 5830 5829 5829 5830 5829 5829 5829 5829 5829 5829 5830 5830 5831 5834 5838 5837 5838 5840 5843 5846 5850 5853 5855 5858 5861 5864 5863 5862 5863 5864 5864 5864 5866 5867 5871
5836 5835 5835 5833 5832 5832 5832 5830 5828 5828 5827 5826 5826 5827 5827 5827 5827 5827 5829 5828 5829 5830 5831 5833 5836 5837 5838 5839 5844 5844 5846 5849 5851 5854 5856 5857 5859 5858 5860 5860 5862 5862 5861 5861 5866
5829 5829 5828 5828 5828 5827 5827 5826 5824 5824 5823 5823 5822 5823 5823 5823 5823 5824 5825 5825 5827 5829 5830 5831 5836 5837 5840 5837 5838 5839 5836 5843 5847 5851 5853 5850 5855 5855 5855 5855 5859 5859 5859 5859 5861
5820 5820 5821 5822 5822 5821 5821 5821 5820 5820 5820 5820 5820 5820 5820 5820 5821 5820 5821 5822 5824 5826 5827 5829 5834 5836 5836 5837 5836 5837 5839 5841 5845 5833 5846 5851 5849 5849 5852 5853 5854 5856 5856 5856 5854
5812 5812 5813 5814 5815 5816 5815 5816 5815 5815 5816 5816 5816 5816 5817 5817 5817 5817 5818 5818 5820 5822 5823 5825 5827 5829 5830 5832 5825 5834 5837 5839 5840 5845 5844 5845 5846 5848 5847 5851 5851 5853 5853 5854 5855
5802 5804 5804 5806 5807 5808 5809 5810 5811 5811 5811 5811 5811 5812 5813 5814 5814 5814 5815 5815 5816 5817 5819 5821 5823 5823 5824 5826 5828 5829 5832 5834 5837 5838 5840 5836 5840 5843 5845 5847 5850 5849 5850 5850 5853
5793 5795 5796 5798 5799 5801 5802 5804 5805 5805 5807 5806 5807 5808 5808 5809 5810 5810 5810 5811 5811 5812 5813 5815 5817 5818 5818 5820 5822 5824 5825 5829 5829 5833 5835 5836 5837 5836 5840 5843 5847 5848 5847 5847 5848
5782 5784 5786 5789 5791 5794 5796 5797 5798 5799 5801 5802 5802 5803 5804 5804 5804 5805 5805 5806 5806 5807 5807 5809 5810 5813 5817 5814 5817 5820 5819 5822 5824 5827 5830 5832 5832 5833 5836 5838 5841 5843 5842 5842 5844